[[{"header":{"parameterUnit":"m.s-1","parameterCategory":1,"la1":30.2991,"la2":30.254,"lo1":-89.0895,"lo2":-89.0444,"dy":0.0017,"dx":0.0017,"nx":28,"ny":28,"refTime":"2023-04-22T21:00:00:Z","depth":0,"parameterNumber":2,"parameterNumberName":"U-component_of_WINDS"},"data":[0,0,0,0,0,0,0,0,0,0,0,0,0,0,0,0,0,0,0,0,0,0,0,0,0,0,0,0,0,0,0,0,0,0,0,0,0,0,0,0,0,0,0,0,0,0,0,0,0,0,0,0,0,0,0,0,0,0,-1.5676,-1.5676,0,-1.5632,-1.5632,-1.5631,-1.5592,-1.5591,-1.5591,-1.559,-1.5546,-1.5545,-1.5544,0,0,0,0,0,0,0,0,0,0,0,0,0,-1.5727,-1.5726,-1.5676,-1.5676,-1.5675,-1.5632,-1.5632,-1.5631,-1.5592,-1.5591,-1.5591,-1.559,-1.5546,-1.5545,-1.5544,0,0,0,0,0,0,0,0,0,0,0,0,0,-1.5696,-1.5726,-1.5677,-1.5651,-1.5648,-1.5632,-1.5632,-1.5631,-1.5592,-1.5591,-1.5591,-1.559,-1.5546,-1.5545,-1.5544,-1.5551,0,0,-1.554,-1.554,0,0,0,0,0,0,0,0,-1.5698,-1.5694,-1.5655,-1.5652,-1.5649,-1.5617,-1.5633,-1.5604,-1.5592,-1.5613,-1.559,-1.559,-1.557,-1.5567,-1.556,-1.5549,-1.5547,-1.554,-1.554,-1.5539,-1.5539,0,0,0,0,0,0,0,-1.57,-1.5696,-1.5659,-1.5654,-1.5651,-1.5641,-1.5636,-1.5627,-1.5596,-1.5611,-1.5608,-1.5604,-1.5568,-1.5561,-1.5559,-1.5546,-1.554,-1.5539,-1.5539,-1.5538,-1.5537,-1.5537,0,0,0,0,0,0,-1.5706,-1.5698,-1.566,-1.5658,-1.5672,-1.5641,-1.5635,-1.5628,-1.5596,-1.559,-1.5604,-1.5602,-1.5563,-1.556,-1.5557,-1.5562,-1.5539,-1.5538,-1.5537,-1.5536,-1.5537,-1.5538,0,0,0,0,0,0,-1.5707,-1.5703,-1.5662,-1.5677,-1.5671,-1.5641,-1.5633,-1.5627,-1.562,-1.5591,-1.5585,-1.5603,-1.5563,-1.5558,-1.5552,-1.556,-1.5538,-1.5536,-1.5535,-1.5536,-1.5537,-1.5572,0,0,0,0,0,0,-1.5709,-1.5704,-1.5706,-1.5677,-1.567,-1.5658,-1.5633,-1.5627,-1.5618,-1.5615,-1.5588,-1.5583,-1.5562,-1.5554,-1.5551,-1.5558,-1.5536,-1.5535,-1.5536,-1.5537,-1.557,-1.5574,-1.5578,0,0,0,0,0,-1.5711,-1.5718,-1.5707,-1.5702,-1.5673,-1.5659,-1.5655,-1.5631,-1.5619,-1.5621,-1.5602,-1.5583,-1.556,-1.5554,-1.555,-1.5556,-1.5534,-1.5536,-1.5537,-1.5569,-1.5574,-1.5578,0,0,0,0,0,0,-1.5749,-1.5714,-1.5701,-1.5699,-1.5682,-1.5652,-1.5654,-1.5637,-1.5623,-1.562,-1.5591,-1.5586,-1.5582,-1.5569,-1.5563,-1.5561,-1.5544,-1.5545,-1.557,-1.5574,-1.5578,-1.5581,-1.5535,0,0,0,0,0,-1.5757,-1.5749,-1.5719,-1.572,-1.5712,-1.5685,-1.5678,-1.566,-1.5642,-1.5635,-1.5615,-1.5598,-1.5587,-1.558,-1.5568,-1.5568,-1.5561,-1.5571,-1.5575,-1.5578,-1.5579,-1.5577,-1.5581,-1.5543,-1.5543,-1.5543,0,0,-1.5774,-1.5754,-1.575,-1.5727,-1.5712,-1.5704,-1.5679,-1.5671,-1.5665,-1.5634,-1.5626,-1.5611,-1.559,-1.5587,-1.5585,-1.5576,-1.5588,-1.558,-1.5583,-1.5581,-1.5579,-1.5583,-1.5586,-1.5544,-1.5543,-1.5543,0,0,-1.58,-1.5784,-1.5783,-1.5768,-1.5746,-1.5727,-1.5727,-1.57,-1.5688,-1.568,-1.5657,-1.5649,-1.563,-1.5615,-1.5606,-1.5626,-1.5608,-1.5623,-1.5642,-1.5641,-1.5644,-1.5647,-1.5653,-1.5656,-1.5624,-1.5624,-1.5624,0,-1.5823,-1.581,-1.5784,-1.5778,-1.5768,-1.5739,-1.5737,-1.5725,-1.57,-1.5693,-1.5684,-1.5659,-1.5643,-1.5635,-1.564,-1.5634,-1.5632,-1.5626,-1.5646,-1.5648,-1.565,-1.5656,-1.5658,-1.5626,-1.5626,-1.5626,-1.5625,0,-1.584,-1.5831,-1.5832,-1.5808,-1.5799,-1.5795,-1.5768,-1.5762,-1.5746,-1.5728,-1.572,-1.57,-1.5683,-1.568,-1.5664,-1.567,-1.5665,-1.5651,-1.5634,-1.5656,-1.5661,-1.5663,-1.5629,-1.5628,-1.5627,-1.5627,0,0,-1.5888,-1.5849,-1.585,-1.5839,-1.5812,-1.5804,-1.5799,-1.5782,-1.5776,-1.576,-1.5754,-1.5739,-1.5725,-1.5715,-1.5697,-1.5696,-1.5712,-1.5682,-1.5681,-1.5687,-1.5717,-1.5727,-1.573,-1.5701,-1.5701,-1.5701,-1.5718,0,-1.5909,-1.5897,-1.5873,-1.5869,-1.586,-1.5833,-1.5828,-1.5811,-1.5795,-1.5784,-1.5766,-1.5755,-1.5739,-1.5732,-1.573,-1.5711,-1.5718,-1.5709,-1.5695,-1.5694,-1.57,-1.5733,-1.5743,-1.576,-1.572,-1.572,-1.5721,0,-1.5931,-1.5916,-1.5911,-1.5884,-1.5879,-1.5875,-1.5857,-1.5848,-1.5828,-1.5816,-1.5804,-1.5784,-1.5777,-1.5762,-1.5751,-1.5746,-1.5738,-1.5728,-1.5728,-1.5725,-1.5708,-1.573,-1.5765,-1.5767,-1.5723,-1.5723,-1.5723,0,-1.5966,-1.5944,-1.5938,-1.5929,-1.5897,-1.5895,-1.5882,-1.5861,-1.5852,-1.5837,-1.583,-1.5815,-1.5806,-1.5794,-1.577,-1.5762,-1.5762,-1.5745,-1.5751,-1.5752,-1.5752,-1.5752,-1.5786,-1.5749,-1.5749,-1.5749,-1.5749,0,-1.5991,-1.5988,-1.5953,-1.5949,-1.5945,-1.5918,-1.5916,-1.59,-1.5882,-1.5874,-1.585,-1.5843,-1.5813,-1.5803,-1.5785,-1.5778,-1.5775,-1.5764,-1.5759,-1.5766,-1.5767,-1.576,-1.5758,-1.575,-1.5749,-1.5749,-1.5749,0,-1.6028,-1.6004,-1.5996,-1.5966,-1.5959,-1.5957,-1.5932,-1.5927,-1.591,-1.59,-1.5897,-1.5869,-1.5855,-1.5831,-1.5811,-1.5799,-1.5796,-1.5788,-1.5803,-1.5799,-1.5807,-1.5806,-1.5837,-1.5839,-1.5802,-1.5802,-1.5802,0,-1.6045,-1.6043,-1.6013,-1.6006,-1.5994,-1.5983,-1.5973,-1.5947,-1.5938,-1.5915,-1.5912,-1.5897,-1.5884,-1.5864,-1.5842,-1.5826,-1.5817,-1.5829,-1.5815,-1.5821,-1.5816,-1.5816,-1.5815,-1.5832,-1.5833,-1.5833,-1.5833,0,-1.6078,-1.6066,-1.6053,-1.6036,-1.6025,-1.6011,-1.5995,-1.5991,-1.5961,-1.5952,-1.5938,-1.5927,-1.5907,-1.5892,-1.5873,-1.5859,-1.5841,-1.5838,-1.5839,-1.5845,-1.5853,-1.5848,-1.581,-1.5837,-1.5837,-1.5837,-1.5836,-1.5836,-1.6104,-1.6101,-1.6079,-1.6065,-1.6051,-1.6036,-1.603,-1.6011,-1.5999,-1.598,-1.5965,-1.5952,-1.5932,-1.5904,-1.5892,-1.5881,-1.5873,-1.5874,-1.5874,-1.5874,-1.5876,-1.5855,-1.5878,-1.5878,-1.5878,-1.5877,-1.5877,0,-1.6135,-1.6119,-1.6107,-1.6085,-1.6075,-1.6059,-1.604,-1.6032,-1.6021,-1.6003,-1.599,-1.5974,-1.5959,-1.5936,-1.5919,-1.5915,-1.5906,-1.5912,-1.5911,-1.5908,-1.5885,-1.5886,-1.5919,-1.5919,-1.5919,-1.5919,-1.5919,-1.5919,-1.6149,-1.6141,-1.6127,-1.6111,-1.6096,-1.6083,-1.6074,-1.606,-1.6046,-1.6028,-1.6016,-1.6001,-1.5981,-1.5962,-1.5948,-1.5942,-1.5936,-1.5944,-1.5935,-1.5914,-1.591,-1.5906,-1.5907,-1.5943,-1.5943,-1.5958,-1.5958,-1.5958]},{"header":{"parameterUnit":"m.s-1","parameterCategory":1,"la1":30.2991,"la2":30.254,"lo1":-89.0895,"lo2":-89.0444,"dy":0.0017,"dx":0.0017,"nx":28,"ny":28,"refTime":"2023-04-22T21:00:00:Z","depth":0,"parameterNumber":3,"parameterNumberName":"V-component_of_WINDS"},"data":[0,0,0,0,0,0,0,0,0,0,0,0,0,0,0,0,0,0,0,0,0,0,0,0,0,0,0,0,0,0,0,0,0,0,0,0,0,0,0,0,0,0,0,0,0,0,0,0,0,0,0,0,0,0,0,0,0,0,-2.2105,-2.2106,0,-2.214,-2.214,-2.2141,-2.2173,-2.2173,-2.2173,-2.2174,-2.2206,-2.2207,-2.2207,0,0,0,0,0,0,0,0,0,0,0,0,0,-2.2064,-2.2064,-2.2105,-2.2106,-2.2106,-2.214,-2.214,-2.2141,-2.2172,-2.2173,-2.2173,-2.2174,-2.2206,-2.2207,-2.2207,0,0,0,0,0,0,0,0,0,0,0,0,0,-2.2088,-2.2064,-2.2105,-2.2126,-2.2128,-2.214,-2.214,-2.2141,-2.2172,-2.2173,-2.2174,-2.2174,-2.2206,-2.2206,-2.2207,-2.22,0,0,-2.2209,-2.221,0,0,0,0,0,0,0,0,-2.2087,-2.209,-2.2122,-2.2125,-2.2127,-2.2153,-2.2138,-2.216,-2.2172,-2.2155,-2.2174,-2.2174,-2.2188,-2.219,-2.2195,-2.2201,-2.2203,-2.221,-2.221,-2.221,-2.2211,0,0,0,0,0,0,0,-2.2085,-2.2088,-2.2119,-2.2123,-2.2126,-2.2133,-2.2137,-2.2142,-2.2168,-2.2157,-2.2159,-2.2163,-2.2189,-2.2194,-2.2196,-2.2203,-2.221,-2.221,-2.2211,-2.2211,-2.2205,-2.2205,0,0,0,0,0,0,-2.2081,-2.2087,-2.2118,-2.212,-2.2108,-2.2133,-2.2138,-2.2144,-2.2168,-2.2172,-2.2163,-2.2165,-2.2193,-2.2195,-2.2197,-2.219,-2.221,-2.2211,-2.2211,-2.2206,-2.2205,-2.2204,0,0,0,0,0,0,-2.208,-2.2083,-2.2116,-2.2104,-2.2109,-2.2133,-2.214,-2.2144,-2.2149,-2.2172,-2.2177,-2.2163,-2.2193,-2.2196,-2.2199,-2.2191,-2.2211,-2.2212,-2.2206,-2.2205,-2.2205,-2.2175,0,0,0,0,0,0,-2.2078,-2.2082,-2.208,-2.2104,-2.2109,-2.2118,-2.2139,-2.2144,-2.2151,-2.2154,-2.2174,-2.2178,-2.2194,-2.2198,-2.22,-2.2193,-2.2213,-2.2207,-2.2206,-2.2205,-2.2177,-2.2173,-2.217,0,0,0,0,0,-2.2077,-2.207,-2.208,-2.2084,-2.2107,-2.2118,-2.2121,-2.214,-2.215,-2.2148,-2.2163,-2.2177,-2.2192,-2.2198,-2.22,-2.2193,-2.2208,-2.2206,-2.2205,-2.2178,-2.2174,-2.217,0,0,0,0,0,0,-2.2044,-2.2073,-2.2085,-2.2086,-2.2099,-2.2123,-2.2121,-2.2135,-2.2145,-2.2147,-2.217,-2.2174,-2.2174,-2.2184,-2.219,-2.2188,-2.2202,-2.2201,-2.2181,-2.2177,-2.2174,-2.2171,-2.2213,0,0,0,0,0,-2.2037,-2.2044,-2.2069,-2.2067,-2.2074,-2.2096,-2.2101,-2.2115,-2.2129,-2.2135,-2.215,-2.2162,-2.217,-2.2174,-2.2182,-2.2179,-2.2183,-2.2175,-2.2172,-2.2169,-2.2168,-2.2166,-2.2163,-2.22,-2.22,-2.22,0,0,-2.2022,-2.2039,-2.2042,-2.2061,-2.2073,-2.2079,-2.21,-2.2105,-2.211,-2.2135,-2.2139,-2.215,-2.2166,-2.2166,-2.2166,-2.2174,-2.2159,-2.2168,-2.2165,-2.2165,-2.2165,-2.2161,-2.2158,-2.2199,-2.2199,-2.2199,0,0,-2.1998,-2.2012,-2.2012,-2.2024,-2.2043,-2.2058,-2.2058,-2.208,-2.2089,-2.2093,-2.2113,-2.2118,-2.213,-2.214,-2.2147,-2.2128,-2.2141,-2.213,-2.2112,-2.211,-2.2108,-2.2105,-2.2097,-2.2095,-2.2129,-2.2129,-2.2128,0,-2.1977,-2.1988,-2.201,-2.2014,-2.2022,-2.2047,-2.2047,-2.2057,-2.2076,-2.2081,-2.2089,-2.2106,-2.2118,-2.212,-2.2116,-2.2121,-2.2121,-2.2127,-2.2106,-2.2104,-2.2102,-2.2095,-2.2092,-2.2127,-2.2127,-2.2127,-2.2127,0,-2.196,-2.1967,-2.1965,-2.1985,-2.1992,-2.1994,-2.2016,-2.2021,-2.2034,-2.2048,-2.2052,-2.2068,-2.208,-2.2082,-2.2095,-2.2086,-2.209,-2.2102,-2.2117,-2.2097,-2.209,-2.2088,-2.2125,-2.2125,-2.2126,-2.2126,0,0,-2.1915,-2.1949,-2.1947,-2.1956,-2.1979,-2.1984,-2.1987,-2.2,-2.2003,-2.2016,-2.2018,-2.2029,-2.204,-2.2048,-2.2062,-2.2061,-2.2044,-2.2074,-2.2074,-2.2067,-2.2035,-2.2024,-2.2021,-2.2054,-2.2054,-2.2053,-2.2033,0,-2.1894,-2.1902,-2.1923,-2.1924,-2.193,-2.1954,-2.1957,-2.197,-2.1984,-2.199,-2.2005,-2.2011,-2.2027,-2.2032,-2.2032,-2.2046,-2.2038,-2.2048,-2.2055,-2.2055,-2.2049,-2.2018,-2.2007,-2.1987,-2.2031,-2.203,-2.203,0,-2.187,-2.1883,-2.1884,-2.1907,-2.1911,-2.1912,-2.1926,-2.1932,-2.1948,-2.1958,-2.1967,-2.1983,-2.1987,-2.2002,-2.2006,-2.2013,-2.2017,-2.2025,-2.2024,-2.2025,-2.204,-2.2016,-2.1981,-2.1978,-2.2027,-2.2027,-2.2027,0,-2.1836,-2.1853,-2.1857,-2.1864,-2.1891,-2.1891,-2.1902,-2.1919,-2.1925,-2.1937,-2.1941,-2.1952,-2.1958,-2.1966,-2.1985,-2.1994,-2.1987,-2.2004,-2.1995,-2.1994,-2.1991,-2.1991,-2.1955,-2.1996,-2.1996,-2.1996,-2.1996,0,-2.1809,-2.1809,-2.1842,-2.1843,-2.1844,-2.1868,-2.1867,-2.1881,-2.1895,-2.1899,-2.1921,-2.1924,-2.195,-2.1956,-2.197,-2.1972,-2.1974,-2.1982,-2.1985,-2.1979,-2.1978,-2.1981,-2.1982,-2.1995,-2.1995,-2.1995,-2.1995,0,-2.1771,-2.1793,-2.1798,-2.1823,-2.1829,-2.1828,-2.185,-2.1852,-2.1867,-2.1872,-2.1875,-2.1898,-2.1906,-2.1927,-2.194,-2.195,-2.1946,-2.1954,-2.1941,-2.1943,-2.1933,-2.1933,-2.1897,-2.1893,-2.1937,-2.1937,-2.1936,0,-2.1752,-2.1752,-2.1778,-2.1783,-2.1794,-2.1801,-2.1808,-2.1832,-2.1838,-2.1857,-2.1857,-2.1867,-2.1876,-2.1888,-2.1906,-2.1916,-2.1923,-2.191,-2.1924,-2.1918,-2.1922,-2.1921,-2.1921,-2.1906,-2.1905,-2.1905,-2.1904,0,-2.1715,-2.1726,-2.1736,-2.175,-2.1758,-2.177,-2.1782,-2.1785,-2.1812,-2.1818,-2.1827,-2.1834,-2.1848,-2.1858,-2.1871,-2.1881,-2.1897,-2.19,-2.1898,-2.1891,-2.1883,-2.1886,-2.1931,-2.19,-2.1901,-2.1901,-2.1901,-2.1901,-2.1685,-2.1687,-2.1705,-2.1716,-2.1728,-2.174,-2.1743,-2.176,-2.1768,-2.1782,-2.1796,-2.1804,-2.182,-2.1839,-2.1848,-2.1854,-2.1862,-2.186,-2.1859,-2.1858,-2.1854,-2.1884,-2.1857,-2.1857,-2.1857,-2.1857,-2.1857,0,-2.1649,-2.1663,-2.1672,-2.169,-2.1698,-2.1714,-2.1729,-2.1734,-2.1741,-2.1755,-2.1764,-2.1775,-2.1784,-2.1803,-2.1814,-2.1815,-2.1823,-2.1817,-2.1817,-2.1819,-2.1847,-2.1847,-2.1811,-2.1811,-2.1811,-2.1811,-2.1811,-2.1811,-2.1631,-2.1634,-2.1648,-2.1658,-2.1671,-2.168,-2.1687,-2.1698,-2.1709,-2.172,-2.1729,-2.1742,-2.1758,-2.177,-2.178,-2.1785,-2.1787,-2.1779,-2.1787,-2.1812,-2.1817,-2.1821,-2.1821,-2.178,-2.178,-2.1758,-2.1757,-2.1757]}]]